When you browse on this site, cookies collect data to enhance your experience and personalize the content and advertising you see.
Visit our Privacy Policy to learn more. By continuing to use the site, you agree to this use of cookies and data.
  • In Switzerland
  • List of Countries
  • For 7 days
  • Water Temperature
  • Weather Map
  • Weather Widgets
  • user-avatar
    Login

    Hourly Weather Makiivka

    Today, 25 February, Tuesday

    Time Temperature Precipitation Wind Pressure Humidity
    00:00 -1°C° 0.4 mm 8 mps 726 mmHg 96%
    01:00 -3°C° 0.6 mm 9 mps 727 mmHg 96%
    02:00 -3°C° 0.6 mm 10 mps 728 mmHg 96%
    03:00 -4°C° 0.6 mm 11 mps 729 mmHg 96%
    04:00 -4°C° 0.4 mm 11 mps 731 mmHg 93%
    05:00 -4°C° 0.4 mm 11 mps 732 mmHg 90%
    06:00 -4°C° 0.4 mm 10 mps 734 mmHg 87%
    07:00 -3°C° 0 mm 10 mps 735 mmHg 86%
    08:00 -3°C° 0 mm 9 mps 736 mmHg 84%
    09:00 -3°C° 0 mm 9 mps 737 mmHg 83%
    10:00 -2°C° 0 mm 8 mps 738 mmHg 80%
    11:00 -1°C° 0 mm 8 mps 739 mmHg 77%
    12:00 -1°C° 0 mm 8 mps 740 mmHg 74%
    13:00 0°C° 0 mm 7 mps 740 mmHg 69%
    14:00 +1°C° 0 mm 6 mps 741 mmHg 63%
    15:00 +2°C° 0 mm 6 mps 741 mmHg 58%
    16:00 +1°C° 0 mm 5 mps 741 mmHg 61%
    17:00 +1°C° 0 mm 4 mps 741 mmHg 64%
    18:00 +1°C° 0 mm 3 mps 742 mmHg 68%
    19:00 +1°C° 0 mm 3 mps 742 mmHg 69%
    20:00 0°C° 0 mm 3 mps 742 mmHg 70%
    21:00 0°C° 0 mm 3 mps 742 mmHg 71%
    22:00 0°C° 0 mm 3 mps 742 mmHg 73%
    23:00 0°C° 0 mm 3 mps 742 mmHg 75%

    Tomorrow, 26 February, Wednesday

    Time Temperature Precipitation Wind Pressure Humidity
    00:00 0°C° 0 mm 3 mps 742 mmHg 77%
    01:00 0°C° 0 mm 3 mps 741 mmHg 80%
    02:00 -1°C° 0 mm 4 mps 741 mmHg 82%
    03:00 -1°C° 0 mm 4 mps 741 mmHg 85%
    04:00 -1°C° 0 mm 4 mps 741 mmHg 86%
    05:00 -1°C° 0 mm 4 mps 740 mmHg 86%
    06:00 -1°C° 0 mm 5 mps 740 mmHg 87%
    07:00 0°C° 0 mm 5 mps 740 mmHg 86%
    08:00 -1°C° 0 mm 6 mps 740 mmHg 85%
    09:00 +1°C° 0 mm 6 mps 740 mmHg 84%
    10:00 +2°C° 0 mm 7 mps 739 mmHg 78%
    11:00 +3°C° 0 mm 7 mps 739 mmHg 71%
    12:00 +5°C° 0 mm 8 mps 739 mmHg 65%
    13:00 +5°C° 0 mm 8 mps 738 mmHg 63%
    14:00 +5°C° 0 mm 9 mps 738 mmHg 61%
    15:00 +6°C° 0 mm 9 mps 738 mmHg 60%
    16:00 +5°C° 0 mm 9 mps 737 mmHg 63%
    17:00 +4°C° 0 mm 8 mps 737 mmHg 66%
    18:00 +4°C° 0 mm 8 mps 737 mmHg 69%
    19:00 +2°C° 0 mm 8 mps 737 mmHg 71%
    20:00 +2°C° 0 mm 8 mps 737 mmHg 74%
    21:00 +1°C° 0 mm 8 mps 736 mmHg 76%
    22:00 +2°C° 0 mm 7 mps 736 mmHg 76%
    23:00 +2°C° 0 mm 7 mps 736 mmHg 76%

    Day after tomorrow, 27 February, Thursday

    Time Temperature Precipitation Wind Pressure Humidity
    00:00 +2°C° 0 mm 7 mps 736 mmHg 76%
    01:00 +2°C° 0 mm 6 mps 735 mmHg 76%
    02:00 +2°C° 0 mm 6 mps 735 mmHg 76%
    03:00 +2°C° 0 mm 6 mps 735 mmHg 76%
    04:00 +2°C° 0 mm 6 mps 734 mmHg 77%
    05:00 +3°C° 0 mm 6 mps 734 mmHg 78%
    06:00 +3°C° 0 mm 6 mps 734 mmHg 79%
    07:00 +4°C° 0 mm 6 mps 734 mmHg 79%
    08:00 +4°C° 0 mm 6 mps 734 mmHg 79%
    09:00 +4°C° 0 mm 7 mps 733 mmHg 79%
    10:00 +6°C° 0 mm 7 mps 733 mmHg 75%
    11:00 +8°C° 0 mm 7 mps 733 mmHg 71%
    12:00 +9°C° 0 mm 8 mps 733 mmHg 67%
    13:00 +10°C° 0 mm 8 mps 733 mmHg 67%
    14:00 +11°C° 0 mm 8 mps 733 mmHg 67%
    15:00 +12°C° 0 mm 8 mps 733 mmHg 67%
    16:00 +11°C° 0 mm 8 mps 733 mmHg 71%
    17:00 +10°C° 0 mm 7 mps 733 mmHg 74%
    18:00 +10°C° 0 mm 6 mps 732 mmHg 78%
    19:00 +9°C° 0 mm 6 mps 733 mmHg 79%
    20:00 +9°C° 0 mm 6 mps 733 mmHg 80%
    21:00 +9°C° 0 mm 6 mps 733 mmHg 81%
    22:00 +8°C° 0.1 mm 6 mps 733 mmHg 80%
    23:00 +8°C° 0.1 mm 5 mps 732 mmHg 79%

    28 February, Friday

    Time Temperature Precipitation Wind Pressure Humidity
    00:00 +8°C° 0.1 mm 4 mps 732 mmHg 78%
    01:00 +7°C° 0.1 mm 4 mps 732 mmHg 80%
    02:00 +7°C° 0.1 mm 5 mps 731 mmHg 81%
    03:00 +6°C° 0.1 mm 5 mps 731 mmHg 83%
    04:00 +5°C° 0.7 mm 6 mps 730 mmHg 86%
    05:00 +5°C° 0.7 mm 6 mps 730 mmHg 89%
    06:00 +5°C° 0.7 mm 7 mps 729 mmHg 92%
    07:00 +5°C° 0.4 mm 7 mps 729 mmHg 88%
    08:00 +4°C° 0.4 mm 7 mps 729 mmHg 83%
    09:00 +4°C° 0.4 mm 8 mps 729 mmHg 79%
    10:00 +4°C° 0.1 mm 8 mps 730 mmHg 80%
    11:00 +3°C° 0.1 mm 7 mps 730 mmHg 81%
    12:00 +3°C° 0.1 mm 7 mps 731 mmHg 81%
    13:00 +1°C° 0.1 mm 8 mps 732 mmHg 79%
    14:00 +1°C° 0.1 mm 9 mps 733 mmHg 77%
    15:00 +1°C° 0.1 mm 10 mps 735 mmHg 74%
    16:00 +1°C° 0 mm 8 mps 736 mmHg 71%
    17:00 +2°C° 0 mm 6 mps 737 mmHg 68%
    18:00 +2°C° 0 mm 5 mps 738 mmHg 65%
    19:00 +1°C° 0 mm 4 mps 739 mmHg 68%
    20:00 +2°C° 0 mm 3 mps 740 mmHg 71%
    21:00 +1°C° 0 mm 3 mps 740 mmHg 74%
    22:00 +2°C° 0 mm 2 mps 740 mmHg 73%
    23:00 +2°C° 0 mm 2 mps 740 mmHg 73%

    29 February, Saturday

    Time Temperature Precipitation Wind Pressure Humidity
    00:00 +1°C° 0 mm 2 mps 740 mmHg 73%
    01:00 +1°C° 0 mm 2 mps 740 mmHg 74%
    02:00 +1°C° 0 mm 2 mps 740 mmHg 75%
    03:00 +1°C° 0 mm 2 mps 740 mmHg 76%
    04:00 0°C° 0 mm 3 mps 739 mmHg 77%
    05:00 0°C° 0 mm 3 mps 739 mmHg 79%
    06:00 0°C° 0 mm 3 mps 739 mmHg 80%
    07:00 +1°C° 0 mm 3 mps 739 mmHg 83%
    08:00 +1°C° 0 mm 3 mps 738 mmHg 86%
    09:00 +1°C° 0 mm 4 mps 738 mmHg 89%
    10:00 0°C° 0.5 mm 4 mps 738 mmHg 91%
    11:00 0°C° 0.5 mm 5 mps 737 mmHg 93%
    12:00 0°C° 0.5 mm 5 mps 737 mmHg 95%
    13:00 -1°C° 0.7 mm 6 mps 736 mmHg 95%
    14:00 -1°C° 0.7 mm 6 mps 736 mmHg 95%
    15:00 -1°C° 0.7 mm 7 mps 735 mmHg 96%
    16:00 -1°C° 1 mm 7 mps 735 mmHg 96%
    17:00 0°C° 1 mm 7 mps 735 mmHg 96%
    18:00 0°C° 1 mm 7 mps 735 mmHg 96%
    19:00 -1°C° 0.6 mm 7 mps 735 mmHg 96%
    20:00 -1°C° 0.6 mm 7 mps 735 mmHg 96%
    21:00 -1°C° 0.6 mm 6 mps 735 mmHg 95%
    22:00 -1°C° 0.3 mm 7 mps 735 mmHg 95%
    23:00 -2°C° 0.3 mm 8 mps 736 mmHg 95%

    1 March, Sunday

    Time Temperature Precipitation Wind Pressure Humidity
    00:00 -2°C° 0.3 mm 8 mps 736 mmHg 95%
    01:00 -2°C° 0.3 mm 8 mps 736 mmHg 92%
    02:00 -3°C° 0.3 mm 9 mps 737 mmHg 88%
    03:00 -3°C° 0.3 mm 9 mps 738 mmHg 85%
    04:00 -3°C° 0 mm 9 mps 738 mmHg 82%
    05:00 -4°C° 0 mm 8 mps 739 mmHg 80%
    06:00 -4°C° 0 mm 8 mps 740 mmHg 78%
    07:00 -4°C° 0 mm 8 mps 740 mmHg 75%
    08:00 -4°C° 0 mm 8 mps 741 mmHg 73%
    09:00 -2°C° 0 mm 7 mps 742 mmHg 71%
    10:00 -1°C° 0 mm 7 mps 742 mmHg 65%
    11:00 0°C° 0 mm 7 mps 743 mmHg 58%
    12:00 +2°C° 0 mm 7 mps 743 mmHg 52%
    13:00 +2°C° 0 mm 6 mps 743 mmHg 51%
    14:00 +3°C° 0 mm 6 mps 743 mmHg 50%
    15:00 +4°C° 0 mm 6 mps 743 mmHg 49%
    16:00 +4°C° 0 mm 4 mps 744 mmHg 52%
    17:00 +4°C° 0 mm 3 mps 744 mmHg 55%
    18:00 +4°C° 0 mm 2 mps 744 mmHg 57%
    19:00 +4°C° 0 mm 2 mps 744 mmHg 63%
    20:00 +3°C° 0 mm 2 mps 744 mmHg 68%
    21:00 +2°C° 0 mm 3 mps 744 mmHg 73%
    22:00 +2°C° 0 mm 3 mps 743 mmHg 75%
    23:00 +1°C° 0 mm 4 mps 743 mmHg 78%
    Show more